Wind_Speed
73 72 71 70 69 68 68 67 67 68 68 69 70 71 72 72 73 74 74 74 73 71 71 71 72 73 73 73 72 71 70 69 69 70 70 70 71 70 68 68 67 66 66 65 64 64 64 63 62 62 64 66 67 69 70 71 71 72 72 72 72 72 72 72 72 72 71 69 68 68 67 66 64 63 62 60 60 60 60 60 60 60 59 59 58
74 73 71 70 68 67 67 67 67 67 67 68 70 70 71 73 74 74 75 75 76 75 74 75 76 77 77 75 74 72 71 70 70 70 71 71 72 72 71 69 68 67 68 68 68 68 67 66 65 65 66 66 66 67 68 69 70 71 72 73 73 73 73 73 73 73 73 71 69 69 69 68 67 65 64 62 61 61 61 61 62 62 62 61 60
78 78 77 75 73 71 70 70 69 68 67 68 69 71 72 74 76 76 76 76 77 78 77 78 79 79 79 78 76 75 74 73 72 72 72 72 73 73 73 72 70 70 69 69 69 70 70 69 68 68 69 68 68 68 67 68 70 71 72 74 74 74 75 75 75 75 75 74 72 71 70 70 69 68 67 65 64 63 62 62 63 63 63 62 62
79 78 78 78 77 77 76 76 75 74 73 71 71 72 73 75 76 76 76 77 78 79 80 79 79 77 76 76 76 76 76 77 77 76 76 76 76 76 75 75 75 74 72 70 69 70 71 71 70 70 71 71 70 70 70 71 72 73 74 75 76 76 77 77 76 77 78 77 75 74 72 72 71 70 69 68 66 65 65 64 64 64 63 63 62
81 80 78 78 78 78 78 78 78 79 79 78 77 76 76 76 76 76 76 77 78 80 81 81 79 77 75 74 74 74 76 78 80 81 81 80 80 79 78 77 76 75 73 71 71 71 71 72 72 73 73 73 72 73 73 74 75 75 76 77 78 79 79 79 79 79 80 79 78 76 75 74 73 72 71 71 70 69 68 67 66 65 64 63 63
83 83 82 81 80 79 78 78 78 79 80 82 82 82 81 81 80 80 80 80 81 82 83 82 82 81 80 78 77 76 77 78 80 81 82 83 83 82 81 78 75 74 73 73 73 73 73 73 74 76 76 75 75 75 76 77 77 78 78 79 80 81 81 81 81 80 80 80 79 78 76 75 75 73 72 72 72 72 71 71 69 67 65 64 63
87 87 86 86 85 84 82 80 79 78 79 81 82 84 85 85 85 85 85 86 86 87 87 87 86 86 85 84 83 82 81 80 81 81 82 83 83 83 82 80 78 77 76 75 75 76 77 77 77 78 78 77 77 78 78 79 79 79 79 79 80 81 81 80 80 79 79 79 79 77 76 76 75 74 73 73 73 73 73 72 71 68 67 65 65
93 93 92 92 91 90 89 87 85 83 82 82 82 83 84 84 85 86 86 87 88 89 90 90 90 90 90 90 89 87 86 85 86 85 85 84 84 83 82 81 80 80 79 78 78 78 79 80 80 80 80 79 78 78 79 80 80 80 79 79 80 80 79 78 78 76 76 77 77 76 75 75 75 75 74 73 72 71 72 72 71 70 68 67 65
97 97 97 96 96 95 95 94 93 92 91 90 89 88 87 87 87 87 88 88 88 88 89 90 90 90 90 90 90 90 89 90 90 91 90 88 86 85 84 82 82 82 82 81 81 82 83 83 83 83 83 82 81 80 80 80 81 81 81 82 82 81 79 78 78 76 75 76 76 75 74 74 74 74 74 72 69 68 69 70 70 70 68 67 65
96 96 97 97 97 97 97 97 96 96 95 95 94 93 93 92 92 92 93 92 92 91 90 90 90 90 89 89 90 90 91 91 92 92 93 92 90 88 86 85 84 84 85 84 84 85 86 86 86 87 86 85 84 83 83 82 82 82 83 84 84 83 82 81 79 78 77 76 77 77 76 74 74 73 73 71 69 68 68 67 67 67 66 65 64
94 94 94 95 95 96 96 96 96 95 94 93 93 93 94 94 95 96 97 97 97 97 96 94 93 92 91 89 88 89 90 91 92 92 93 94 94 92 91 89 88 86 86 86 87 88 89 89 89 89 89 88 87 86 86 85 84 84 84 85 86 85 84 83 81 80 79 79 79 81 80 77 75 73 72 71 70 69 68 65 64 64 64 63 63
95 95 96 96 96 96 96 96 96 96 95 95 95 96 97 98 98 98 98 99 100 100 100 99 97 96 95 93 91 89 88 89 91 92 93 95 96 97 96 95 94 92 90 88 88 88 90 91 91 91 91 90 89 88 88 87 87 87 87 87 87 86 85 84 82 81 81 80 81 82 82 80 77 75 73 71 69 68 68 65 63 63 63 63 63
98 99 99 100 100 100 100 100 99 99 99 99 100 101 103 104 104 103 102 102 102 102 102 102 101 100 99 98 96 94 91 90 91 93 94 95 96 97 98 98 99 99 98 96 94 93 92 91 91 91 92 92 91 90 89 89 90 90 89 89 88 86 84 83 82 80 79 79 79 80 81 81 80 76 74 72 70 68 67 65 63 62 62 62 63
102 103 103 104 105 105 105 105 105 105 105 105 106 107 108 109 108 108 107 106 106 106 105 105 105 104 103 102 101 99 97 95 95 95 96 97 98 99 99 99 99 99 99 100 100 99 98 96 93 92 92 93 93 93 92 94 94 93 92 92 90 88 85 83 81 79 78 78 77 77 79 81 80 77 75 74 72 69 67 65 63 63 63 63 63
103 104 105 106 107 108 108 109 109 109 109 110 110 110 110 110 110 111 110 110 110 110 110 109 109 108 107 106 105 104 103 103 102 100 98 99 100 102 102 102 101 101 100 99 99 100 100 99 98 95 94 95 95 95 96 97 98 98 96 94 92 90 88 85 83 82 82 80 77 75 78 81 79 78 76 74 72 69 68 66 65 65 65 64 64
101 103 104 105 106 107 107 108 108 108 109 109 109 109 108 108 109 109 110 110 111 111 111 112 113 112 112 111 109 108 107 108 108 107 105 103 103 103 104 105 105 104 103 102 102 101 101 101 100 99 98 97 97 97 97 98 99 99 98 97 95 93 89 86 85 86 85 84 79 77 79 81 80 78 77 75 73 71 70 68 66 65 66 66 65
96 98 99 100 101 101 102 102 102 103 103 104 104 104 105 105 105 106 107 107 108 108 109 111 112 113 114 114 113 112 110 109 110 110 110 110 109 108 107 107 107 106 105 105 105 105 104 103 102 102 101 101 100 99 98 98 99 98 97 97 96 95 92 88 86 86 85 85 82 79 80 82 81 79 77 75 74 72 71 68 66 65 66 67 67
90 91 92 92 93 93 94 95 96 97 97 97 98 99 100 101 101 102 103 103 104 104 105 106 107 109 111 112 113 113 112 111 109 109 109 111 112 112 111 109 109 108 108 107 107 107 106 105 104 104 103 103 103 102 100 99 99 99 97 96 95 93 91 89 88 88 86 86 85 83 81 81 80 79 77 75 73 71 69 67 65 66 67 67 68
86 87 87 87 87 89 90 91 92 93 93 94 95 96 96 97 97 98 99 99 100 100 100 101 102 103 104 105 107 109 110 109 108 106 106 107 108 111 112 112 110 110 109 109 109 109 107 105 104 103 102 102 102 103 102 101 100 99 98 98 96 93 90 89 87 87 86 87 87 84 81 80 79 78 77 75 72 69 67 66 66 66 67 67 68
84 85 85 85 86 87 88 89 90 90 91 92 92 93 93 93 94 95 96 96 96 97 97 97 98 98 99 100 101 102 103 104 102 101 100 101 103 105 107 109 110 109 110 110 111 111 110 108 106 104 103 103 102 102 102 102 102 101 100 99 96 94 93 91 86 82 82 85 87 85 82 79 77 77 77 77 75 73 71 69 68 67 67 68 69
83 84 84 85 85 86 87 88 89 90 90 91 92 92 92 93 93 94 95 96 96 96 96 96 97 96 96 96 97 97 97 98 98 96 95 96 97 99 102 104 105 107 108 109 110 110 110 110 110 108 106 106 106 105 103 102 102 103 102 101 98 96 96 94 89 85 82 82 84 84 82 79 77 77 77 77 76 74 72 69 67 66 67 68 69
85 85 85 86 86 87 88 89 90 91 91 92 93 93 93 93 94 95 96 96 97 97 97 97 98 98 97 96 96 96 95 95 95 94 92 92 93 94 97 98 99 101 104 106 108 108 108 109 109 109 108 107 107 107 107 105 104 102 101 100 101 100 98 95 93 91 88 85 84 82 81 80 79 78 77 75 72 70 68 66 64 66 68 70 72
87 87 87 87 87 88 88 89 90 91 91 92 93 93 93 94 95 95 96 96 97 97 97 97 98 98 98 97 97 96 95 95 95 94 92 91 91 92 93 94 95 97 99 101 103 105 106 106 106 107 107 106 105 106 107 107 105 103 101 99 100 100 99 96 93 90 87 84 83 81 79 79 79 78 77 75 73 69 66 64 65 68 71 72 73
87 87 87 87 87 88 88 89 89 90 91 92 93 93 93 94 94 95 95 96 96 96 95 95 96 97 97 97 96 95 95 95 95 95 94 93 92 92 92 92 93 94 96 97 98 100 102 104 104 104 104 103 102 103 104 105 104 102 101 100 99 98 97 96 94 90 85 82 82 80 78 77 78 78 77 76 74 71 67 67 71 74 76 76 76
87 87 87 87 87 88 88 88 89 90 90 91 92 92 92 93 93 93 93 94 95 95 94 95 95 96 96 96 95 94 94 94 94 94 94 93 92 92 92 92 92 93 95 96 96 96 97 99 101 103 103 102 101 99 99 99 100 99 98 98 98 97 95 94 93 91 88 86 84 82 80 79 79 79 77 75 73 71 70 71 73 76 79 80 80
86 86 86 86 86 87 87 86 85 86 86 86 87 86 86 87 87 87 87 88 89 90 90 91 91 92 93 93 93 93 93 93 93 93 92 92 92 91 92 92 93 93 94 94 94 94 94 95 97 100 101 101 101 99 96 95 95 95 95 96 97 97 95 92 91 91 89 88 86 85 83 82 82 81 78 76 74 73 72 72 73 75 78 81 82
84 84 83 83 82 81 80 79 77 77 76 75 76 75 75 76 77 76 77 78 80 81 82 84 85 86 86 87 88 89 90 91 91 91 90 90 91 91 91 92 93 93 93 93 92 92 92 92 93 96 98 99 100 100 97 94 91 89 89 90 92 93 93 92 90 89 88 88 87 86 85 84 84 84 82 79 76 75 73 73 74 75 76 80 83
80 78 76 75 73 72 72 70 70 69 68 68 68 68 68 69 69 69 69 71 72 73 74 75 77 78 80 81 82 83 84 85 85 86 86 87 88 90 90 90 91 92 91 91 91 91 92 92 92 93 95 96 97 98 97 95 91 86 83 82 83 85 88 90 90 90 90 90 89 88 86 85 84 84 84 82 79 77 76 75 75 75 76 81 85
71 69 68 67 66 66 66 65 65 64 63 63 63 64 65 66 66 65 65 66 68 68 67 67 68 70 72 74 76 77 78 78 78 79 81 83 85 87 88 87 88 89 90 89 89 90 91 92 91 90 90 91 92 94 95 94 92 88 83 79 77 78 80 83 85 87 89 91 91 89 87 85 84 83 83 83 81 79 78 77 77 77 79 83 86
62 61 60 59 58 58 58 58 58 57 57 56 56 57 58 60 62 62 62 63 64 65 65 64 63 64 65 65 66 69 70 70 71 74 76 78 80 82 84 84 84 84 86 87 88 89 89 90 90 89 88 87 87 88 90 91 91 89 85 81 78 76 76 76 77 80 83 86 87 87 85 84 83 82 82 81 80 79 78 78 78 79 81 83 84
54 52 51 51 51 52 52 52 52 52 52 53 53 54 54 54 56 57 58 59 61 62 63 63 62 63 63 61 59 60 60 61 63 66 69 72 75 77 79 80 80 80 81 83 86 87 86 86 87 87 86 84 83 82 83 85 88 88 86 83 81 78 76 74 72 73 75 78 80 81 81 81 81 81 80 80 79 79 79 78 78 78 79 79 79
47 46 47 49 50 51 52 51 51 51 52 52 53 53 53 52 52 53 55 56 58 59 60 61 61 61 61 60 58 57 55 54 55 57 60 64 68 71 73 75 76 76 77 80 83 84 82 82 83 83 83 81 79 78 78 79 82 84 84 83 82 80 77 75 72 70 70 71 73 74 74 74 76 77 78 78 77 77 76 75 74 74 73 73 72
44 44 46 48 48 49 50 49 49 49 49 49 49 50 50 50 50 50 51 52 53 54 56 57 58 58 58 58 57 56 54 53 52 52 53 56 59 62 66 68 71 73 74 76 79 79 77 76 77 78 78 77 76 76 76 76 77 78 80 80 80 80 78 76 74 72 69 68 69 70 68 68 69 70 71 70 70 70 69 68 68 67 66 66 66
42 43 44 44 44 44 44 44 44 44 45 45 46 46 46 46 46 46 46 46 46 48 49 51 52 53 53 53 53 53 53 53 52 51 50 51 52 54 57 61 65 68 70 72 74 73 71 69 70 72 73 73 73 74 75 74 73 74 75 77 77 77 77 76 75 73 70 68 68 69 68 66 66 66 65 64 64 65 64 64 63 62 62 62 63
41 42 42 42 41 41 41 42 43 45 46 46 46 45 45 46 46 46 46 46 45 45 45 46 48 49 49 48 48 48 48 49 50 50 50 50 50 51 53 55 58 60 63 66 67 67 64 62 63 65 67 69 70 72 74 73 72 71 72 72 72 72 73 73 73 71 69 67 68 69 68 67 65 64 64 64 65 65 64 63 61 61 61 61 62
40 40 40 40 40 40 41 43 46 47 47 47 46 46 46 46 46 46 45 45 44 43 42 42 42 43 43 43 42 42 43 44 46 48 49 49 50 51 51 51 51 53 55 58 60 61 59 57 57 60 63 64 67 70 72 72 71 70 70 70 68 67 67 68 68 67 66 66 67 68 68 67 65 65 65 66 66 66 66 65 63 62 62 63 63
38 39 39 40 40 39 41 44 47 47 46 43 41 38 36 35 35 35 35 36 36 36 37 38 38 38 38 38 37 37 38 39 42 44 46 48 49 49 49 47 47 48 50 52 54 55 55 53 53 56 59 61 64 68 70 70 70 69 69 68 67 66 66 65 64 65 64 63 64 66 66 64 63 64 64 65 65 65 66 66 65 64 64 63 62
36 37 38 38 38 37 39 43 46 43 38 33 29 27 27 28 30 31 32 32 32 32 32 32 33 34 35 35 36 36 37 38 40 42 44 46 47 47 45 44 44 44 44 46 47 48 49 50 51 53 56 60 63 66 68 69 69 70 70 69 68 69 68 67 65 65 63 62 63 64 63 60 59 61 62 63 64 64 65 65 64 63 62 61 60
34 35 35 35 35 35 37 41 42 37 30 25 24 24 26 29 31 32 33 33 32 32 32 32 31 30 29 30 31 32 34 37 39 40 42 43 43 42 40 38 38 39 39 40 41 42 44 46 49 51 55 58 60 63 65 67 69 70 71 71 71 71 70 68 66 66 65 63 63 64 63 60 58 58 60 62 64 65 65 64 63 61 59 58 58
32 33 33 33 33 34 35 38 38 33 25 22 23 24 27 30 32 34 35 34 32 32 32 32 32 31 28 26 25 25 27 29 31 32 34 35 34 34 32 32 33 33 34 35 36 38 41 44 47 50 52 55 57 59 62 65 67 69 71 72 73 73 71 69 67 67 66 65 64 63 63 61 59 57 58 60 62 63 62 62 60 59 58 57 57
31 31 32 32 32 33 33 35 35 30 25 22 23 25 28 31 33 35 35 34 32 30 30 30 31 32 29 25 23 21 21 22 22 23 24 25 25 25 26 26 27 28 29 30 32 35 38 42 44 47 49 51 53 56 58 61 64 67 70 72 73 73 72 70 68 67 66 66 64 63 63 62 61 58 57 57 58 60 60 59 59 58 58 58 58
32 32 32 31 31 31 31 32 32 29 25 23 24 25 28 30 33 34 34 32 30 29 28 28 28 29 29 26 23 21 19 18 18 17 17 18 19 20 21 21 21 22 25 27 29 32 35 38 42 44 46 48 50 53 56 58 62 65 68 70 72 72 71 70 69 68 66 65 64 63 63 63 63 61 59 58 57 58 59 59 59 59 59 59 59
30 31 31 31 31 31 30 30 30 29 27 26 26 26 27 29 31 32 33 32 30 28 26 25 26 26 27 27 25 21 18 16 15 14 14 15 16 16 16 17 17 19 22 24 26 29 32 36 39 41 42 44 47 49 52 55 59 62 65 67 70 71 71 70 69 68 66 65 63 62 61 61 61 61 60 60 59 59 59 59 60 60 60 60 59
29 30 30 31 32 32 32 31 31 30 29 28 28 28 28 29 30 30 30 31 31 28 24 23 23 23 24 25 26 24 21 17 15 13 12 13 13 14 14 14 15 16 19 21 24 27 30 33 35 37 39 41 43 45 48 52 56 60 62 63 65 68 69 69 69 67 66 65 63 61 60 59 59 59 59 60 60 60 59 59 59 60 60 59 59
30 30 31 31 31 32 33 33 33 33 33 32 31 29 29 29 29 28 28 30 29 26 24 23 22 20 20 21 22 23 22 20 16 13 12 11 11 12 12 13 14 15 16 18 21 24 26 29 31 33 35 37 39 42 45 48 52 55 56 58 61 63 66 67 67 66 65 64 62 61 60 59 58 58 58 59 60 60 60 60 60 60 60 60 59
32 32 32 32 32 33 33 33 34 35 35 35 35 34 32 30 28 27 27 28 27 24 23 22 21 18 17 17 18 19 20 20 19 16 13 10 9 9 9 10 11 13 14 16 18 20 22 25 27 29 31 33 36 38 41 43 45 47 50 53 56 59 61 63 63 63 62 62 61 60 59 58 58 58 58 58 59 59 59 60 60 59 59 59 58
34 34 34 34 34 34 35 35 35 36 36 36 36 36 35 33 31 29 28 28 26 22 21 21 20 17 15 15 15 15 16 17 16 16 15 13 11 8 6 6 6 8 10 12 14 16 18 20 22 23 25 28 30 32 34 36 38 40 43 46 49 52 55 56 57 57 56 56 56 56 56 56 56 56 56 56 56 56 56 56 57 57 57 57 57
34 35 35 36 36 37 37 37 38 38 38 38 37 36 36 35 33 31 28 27 25 22 20 20 19 17 15 13 12 12 12 12 12 12 12 11 10 9 8 7 5 4 4 5 7 8 10 12 14 16 18 20 22 23 25 27 29 33 36 39 42 45 48 50 51 52 51 50 50 50 50 51 52 53 53 54 54 54 54 54 54 54 55 55 55
34 35 36 36 37 37 38 39 39 40 40 40 39 38 36 34 33 32 29 26 24 22 19 19 18 17 15 14 12 10 9 8 8 8 7 8 7 7 6 5 5 5 4 3 2 2 1 1 3 4 7 9 11 13 15 18 20 23 27 30 34 36 39 41 43 45 45 46 46 46 47 48 49 49 50 50 51 51 51 51 51 51 52 52 53
35 36 37 37 38 39 40 40 41 41 41 41 40 39 37 35 32 31 29 27 24 21 19 18 17 16 15 15 13 10 9 8 7 6 5 5 5 4 4 5 6 7 6 5 4 3 2 2 2 2 4 5 6 8 10 12 15 17 20 22 25 27 30 32 34 37 39 41 42 43 44 44 45 46 46 47 47 47 48 48 49 49 49 50 50
36 37 37 38 39 40 41 42 42 43 43 42 40 39 37 35 32 30 28 27 24 22 20 18 17 15 15 14 13 11 10 9 7 4 3 4 5 6 6 6 5 4 3 2 1 1 2 4 6 7 8 8 9 10 12 13 15 16 18 19 21 23 25 27 29 31 33 35 36 38 39 40 40 41 42 43 43 44 44 45 45 45 46 46 46
Wind_Direction
277 277 276 275 274 273 271 270 269 268 267 266 265 264 263 263 262 262 262 263 262 262 262 262 262 261 259 258 257 257 257 257 258 257 257 256 255 254 254 254 256 257 259 260 262 263 264 265 265 265 264 264 264 263 263 263 263 263 262 261 260 260 260 260 260 260 259 259 259 259 258 257 256 256 257 257 258 258 258 258 258 257 257 256 255
275 274 273 272 271 270 270 269 268 266 264 262 261 260 260 259 258 257 256 256 256 256 256 257 258 259 259 258 258 257 258 258 257 257 256 256 256 255 254 254 255 256 258 259 261 262 263 264 264 264 264 263 263 263 263 263 263 262 261 261 260 260 260 260 260 260 259 258 258 258 258 258 256 256 256 256 257 257 258 258 258 258 258 257 256
274 274 273 271 268 267 266 267 266 265 262 260 258 257 257 256 255 254 254 254 254 254 254 254 254 256 256 257 257 257 258 259 258 258 257 256 255 255 254 254 255 257 259 261 261 261 262 262 262 263 263 263 262 262 261 261 261 260 260 259 259 259 259 260 260 260 259 258 257 257 257 257 257 256 256 256 256 257 257 258 258 258 258 257 257
274 274 273 272 270 268 266 265 265 264 262 259 256 254 255 254 254 254 253 253 253 253 253 253 254 255 256 256 257 257 258 259 259 259 258 257 256 256 255 256 257 259 261 262 262 262 261 261 261 261 261 261 261 261 260 259 258 258 258 258 258 258 258 259 259 259 259 258 257 256 256 256 256 256 257 257 257 257 257 257 257 258 258 258 257
273 273 272 272 271 270 268 266 265 264 263 262 259 257 255 254 253 253 253 253 253 254 254 253 253 254 255 257 258 259 259 259 259 260 260 260 260 260 259 258 259 259 260 261 262 262 261 260 259 259 260 260 261 261 261 259 258 257 257 258 258 258 258 259 259 259 259 258 257 256 256 256 257 257 257 258 258 257 257 257 257 257 257 257 258
273 272 272 272 271 271 270 269 267 265 264 263 263 262 260 257 255 253 253 254 255 255 255 255 254 254 254 256 257 259 260 260 261 261 261 261 262 262 262 261 260 258 259 260 261 263 262 260 259 259 259 259 259 260 261 261 260 259 259 259 259 259 259 259 259 259 259 259 258 257 257 257 258 258 258 259 259 258 258 257 256 256 256 257 257
273 272 272 271 271 271 270 270 269 267 266 265 264 264 264 263 261 258 257 256 256 257 258 258 258 257 256 257 258 259 260 261 261 262 263 263 263 262 261 261 260 259 257 258 260 262 263 261 260 260 259 259 258 258 259 260 261 261 261 260 260 260 260 260 260 260 261 261 259 258 258 258 259 259 259 259 260 259 258 257 255 255 255 255 256
275 274 273 272 272 271 270 269 269 268 267 266 265 264 264 264 264 264 263 261 260 260 260 261 261 261 261 261 261 261 261 261 261 262 263 263 263 262 261 260 260 260 258 258 259 261 262 262 262 261 261 260 260 259 259 260 260 261 261 261 261 260 261 261 261 262 263 264 263 261 261 260 260 260 259 260 261 260 259 256 255 254 253 253 254
275 275 274 274 273 272 271 271 270 269 269 268 266 265 263 263 263 264 265 265 264 263 263 263 263 262 262 262 262 262 262 261 261 262 262 262 262 261 260 259 259 259 259 259 259 260 261 261 261 262 262 261 261 260 260 259 260 260 260 261 261 262 262 263 264 265 266 267 267 266 265 264 263 262 260 259 260 260 257 255 254 254 254 253 254
275 274 274 273 273 272 272 271 271 271 270 270 268 267 265 264 263 263 263 264 264 264 264 264 264 263 262 261 261 261 261 260 260 260 260 260 260 260 259 259 258 258 258 258 258 259 260 260 260 261 261 261 262 262 261 260 260 260 260 261 261 262 263 264 265 266 267 269 270 270 268 267 266 264 261 258 258 258 257 256 255 254 254 255 254
275 274 274 273 272 272 271 271 270 270 269 269 269 269 269 268 267 266 265 264 263 263 263 263 263 262 262 260 260 259 259 259 259 258 258 258 259 259 258 258 258 258 257 257 257 257 258 259 260 260 260 261 261 261 261 261 261 260 260 260 261 262 263 264 265 266 266 268 270 270 269 268 266 264 260 256 255 257 257 257 257 256 255 256 256
275 275 275 275 274 273 272 271 270 269 268 268 269 269 271 272 272 270 269 267 266 264 263 262 262 261 260 259 258 257 257 257 257 257 257 257 257 257 257 257 257 257 258 258 258 257 257 257 257 258 258 259 259 260 260 261 261 261 261 260 260 261 262 263 264 265 266 267 268 268 267 266 265 263 259 255 254 256 256 256 257 258 257 257 257
276 276 276 275 275 274 273 272 271 270 269 268 268 268 270 272 271 271 270 270 269 267 266 264 263 261 260 258 257 256 256 257 257 257 257 257 256 256 256 256 256 256 256 256 257 257 258 258 257 257 257 257 258 259 261 261 261 261 261 261 262 262 262 263 263 264 265 267 268 267 265 264 264 262 258 254 254 256 257 257 258 259 259 259 259
276 276 276 276 276 275 274 274 273 273 272 271 270 270 271 271 270 269 269 268 268 268 268 267 266 265 263 261 258 256 256 257 258 258 258 257 257 256 256 255 255 254 254 254 255 255 256 256 257 257 257 257 257 259 261 261 261 261 261 262 263 263 263 263 262 263 265 267 268 266 263 261 261 260 256 254 254 256 257 258 259 260 261 261 260
276 276 276 276 276 275 275 274 274 274 274 274 274 273 273 272 271 269 268 267 267 266 266 266 266 266 266 265 263 260 258 258 259 260 259 259 258 257 256 255 255 254 253 253 253 253 254 255 255 255 255 256 257 258 259 259 259 260 260 262 263 263 263 263 262 263 264 266 266 264 261 259 259 258 256 254 254 255 256 258 259 260 261 262 262
276 276 276 276 276 276 276 275 275 275 275 275 275 274 274 273 272 271 270 269 267 266 265 265 264 265 265 265 265 264 262 261 262 262 262 261 260 259 257 256 255 254 253 253 252 252 252 253 254 254 254 254 255 256 257 258 259 259 260 261 261 261 261 261 261 262 263 263 264 262 259 258 257 257 255 254 253 253 254 256 258 261 263 264 264
278 277 277 277 277 277 277 277 276 276 276 276 275 275 274 274 273 273 272 271 269 268 267 265 264 264 264 264 264 264 264 263 263 264 263 263 262 261 259 257 256 255 254 253 252 252 251 251 252 252 253 254 254 255 256 257 258 259 260 261 261 260 260 260 260 261 261 260 260 260 257 256 256 256 255 254 252 253 254 256 259 262 264 264 264
279 279 278 278 278 278 277 277 277 276 276 276 276 275 275 274 274 273 273 272 271 270 269 268 266 265 264 263 263 263 262 262 263 263 263 263 263 262 260 258 256 255 254 253 253 252 252 252 252 252 252 252 254 254 255 255 256 258 259 260 261 260 261 260 259 259 259 258 258 258 256 254 254 255 255 254 253 253 254 257 260 263 265 265 265
280 279 279 279 279 279 278 278 277 277 276 276 276 275 275 275 275 274 274 273 272 271 271 270 268 267 266 265 264 263 262 262 261 262 262 262 262 261 260 259 256 255 254 253 252 252 252 252 253 253 253 253 253 254 254 255 255 256 257 258 259 260 261 261 259 258 257 256 255 254 252 251 252 253 252 252 251 252 253 255 257 260 263 264 265
280 280 280 280 280 279 279 279 278 278 277 277 276 276 276 275 275 275 275 274 273 273 272 271 270 269 268 267 266 265 264 263 262 261 261 260 260 260 260 259 258 256 254 252 252 251 252 252 252 254 254 254 254 255 255 255 256 256 256 257 258 258 259 258 258 257 257 255 253 250 248 248 249 250 250 250 250 250 250 252 254 256 259 262 263
282 282 282 281 281 281 280 280 280 279 278 278 277 276 276 275 275 275 274 274 274 273 272 272 271 270 269 268 268 267 266 265 264 262 261 260 260 260 260 259 258 257 255 253 252 251 250 251 251 252 254 255 256 256 256 257 257 256 256 256 256 257 257 256 257 257 257 256 254 251 249 248 248 248 248 249 249 249 250 252 255 258 260 262 263
284 283 283 283 282 282 281 281 281 280 279 278 278 277 276 275 274 274 273 273 272 272 272 271 271 270 269 269 268 268 267 266 265 264 263 261 260 260 260 259 258 257 256 255 253 252 250 250 250 250 252 253 255 256 256 257 257 257 256 256 256 257 258 258 258 258 259 258 258 256 256 254 251 250 250 250 249 250 252 254 257 259 261 262 262
285 285 285 284 284 283 283 282 281 281 280 279 278 277 276 275 275 274 273 272 272 271 270 270 270 270 269 268 268 267 267 267 266 265 264 262 261 260 260 259 259 258 257 255 254 253 251 250 249 249 249 250 252 254 255 256 256 256 256 256 256 256 257 258 259 259 259 258 258 259 259 258 256 254 253 252 252 253 255 256 258 259 260 262 262
287 287 287 286 286 285 285 284 283 283 282 281 280 279 278 277 276 275 274 273 272 271 270 270 269 269 268 268 267 266 266 266 265 264 263 262 261 260 260 259 259 258 257 256 254 253 252 251 250 248 248 248 249 250 252 253 254 255 255 255 255 256 256 257 258 258 257 256 257 257 257 256 256 256 255 255 255 254 254 255 256 258 260 261 263
289 289 289 288 288 287 286 286 285 284 283 282 281 280 279 278 278 277 276 275 274 273 272 271 270 269 268 268 267 266 265 265 264 263 263 262 261 260 259 259 258 257 257 256 255 253 252 251 251 249 248 246 246 247 248 250 251 253 253 254 254 254 255 256 257 257 256 255 255 256 255 254 255 255 256 256 256 255 255 255 255 257 259 261 262
291 291 290 290 290 289 288 288 287 286 285 285 284 283 282 281 280 279 278 277 276 275 274 273 271 270 269 268 267 266 265 264 263 263 262 262 261 260 260 259 257 256 256 256 255 254 252 251 250 250 248 247 245 245 246 247 248 250 251 252 253 253 253 254 256 257 258 257 257 256 255 255 255 255 256 256 256 257 258 259 259 259 259 260 261
292 293 293 293 292 292 291 291 290 289 288 287 286 285 284 283 282 281 280 279 277 276 275 273 272 271 270 269 268 266 265 264 264 263 262 262 261 260 259 258 258 256 255 255 255 254 253 252 250 249 248 247 246 245 245 246 247 248 249 251 252 253 253 253 254 256 257 258 258 257 257 256 257 257 256 256 256 258 260 262 263 262 260 260 260
295 296 296 296 295 294 293 292 291 290 290 289 288 287 286 285 284 283 282 281 279 278 276 275 273 272 271 269 268 266 265 264 264 264 263 262 261 259 258 258 258 257 256 255 254 253 253 252 250 249 248 248 247 246 246 246 247 247 247 248 250 252 253 253 253 254 256 257 258 258 258 258 258 258 258 257 258 260 261 263 264 262 260 260 261
298 298 298 297 296 295 294 293 292 292 291 290 289 288 287 286 284 283 282 281 280 280 279 277 276 274 272 270 269 267 265 264 264 263 262 261 261 260 258 257 257 257 256 255 254 253 252 251 250 250 249 248 247 246 247 247 248 247 246 246 247 249 251 252 252 253 254 255 256 257 257 258 257 257 257 258 259 260 261 262 261 260 259 260 262
301 300 300 300 300 299 298 297 296 295 293 292 291 290 289 288 286 285 283 281 280 280 280 279 279 277 276 274 272 270 268 266 264 263 262 261 260 260 259 258 257 256 256 255 254 253 251 251 250 250 249 248 247 246 246 247 248 248 247 246 245 246 247 249 251 252 252 253 254 255 255 255 255 255 256 257 258 258 259 259 258 257 258 260 261
305 306 306 306 305 304 303 302 301 299 297 295 294 293 291 290 289 287 285 283 282 281 281 280 279 278 278 277 276 274 273 270 267 264 262 261 260 259 259 259 257 256 255 255 254 253 252 251 250 249 249 248 248 247 245 245 246 247 246 246 245 245 245 247 248 249 250 251 252 253 253 253 253 254 254 255 256 256 256 256 255 255 255 255 255
310 311 310 310 309 308 307 305 303 301 299 298 297 295 293 291 290 288 287 285 284 283 282 281 280 279 278 278 277 277 276 274 271 268 265 263 261 260 259 258 258 257 255 254 254 253 251 250 250 249 248 248 247 247 246 244 244 244 244 244 244 244 244 245 246 248 248 248 249 249 250 250 251 251 251 252 252 252 251 250 249 248 248 248 247
312 313 313 313 313 312 310 307 306 305 303 302 300 298 296 294 292 290 289 288 287 286 285 283 282 280 279 279 278 277 276 274 273 271 268 266 264 262 260 259 258 256 255 254 254 253 251 250 249 249 247 246 246 245 244 243 242 241 241 242 242 243 243 244 245 247 247 246 244 243 244 245 245 245 245 245 245 244 243 243 244 244 245 246 248
316 317 317 317 316 315 314 314 313 313 311 309 307 305 302 300 298 295 294 293 292 291 290 288 286 283 281 280 279 277 274 273 272 271 271 269 268 265 263 260 258 256 255 254 254 253 252 250 249 248 246 245 243 243 242 242 240 239 238 239 240 241 242 243 244 246 247 245 242 239 240 242 243 243 243 242 242 243 244 245 247 249 250 251 252
320 320 320 320 320 320 321 321 321 320 317 314 312 309 306 304 303 301 299 297 295 294 293 291 289 286 283 281 279 277 274 271 270 270 271 271 270 268 265 262 260 258 257 256 255 254 252 249 247 246 244 242 240 240 240 239 238 236 235 236 237 238 240 241 243 244 245 244 241 240 241 242 242 242 242 242 243 246 248 250 251 252 253 254 255
322 322 322 322 321 321 322 324 324 321 318 315 312 310 308 307 306 305 303 301 299 297 294 293 292 289 287 283 280 278 276 272 270 269 270 270 270 270 269 267 264 261 258 256 255 253 250 247 244 243 241 239 237 236 236 236 236 234 233 232 233 235 237 239 241 242 242 241 241 241 242 243 243 242 243 244 246 248 250 251 252 253 254 256 257
323 324 325 324 322 322 324 327 326 324 321 320 319 319 321 322 323 323 320 317 313 308 304 300 297 294 291 288 285 283 280 276 272 270 269 270 271 272 272 270 266 262 260 257 254 252 249 244 240 238 237 236 234 233 233 233 233 232 231 229 230 232 234 235 237 239 239 240 241 242 244 244 245 244 244 245 246 247 248 249 250 252 254 255 256
325 326 327 326 324 325 328 330 330 329 328 331 335 341 347 349 348 347 345 341 337 332 326 319 311 303 297 292 288 284 281 277 273 271 271 271 271 272 271 269 266 263 260 257 254 251 248 243 238 235 233 232 231 230 230 230 230 230 229 228 228 230 231 232 233 235 237 239 241 242 242 243 244 245 245 246 245 245 246 247 249 251 252 253 253
328 328 330 329 328 328 331 335 336 336 336 340 347 353 356 355 353 350 348 346 345 344 342 338 332 323 311 301 294 287 282 277 274 272 272 271 271 270 269 268 266 263 260 257 254 250 245 240 236 232 231 230 229 228 228 228 228 229 228 227 228 229 230 230 231 232 234 235 237 239 239 239 240 243 245 245 245 245 246 247 248 249 250 251 251
337 333 331 332 331 331 334 338 341 340 339 341 348 352 352 350 349 347 345 343 343 343 344 343 342 339 331 319 308 298 289 283 279 275 273 272 270 269 267 266 265 263 260 255 251 246 241 236 233 231 229 228 227 226 226 227 228 228 228 228 227 229 230 230 230 231 231 232 233 235 237 237 237 239 241 243 244 245 245 245 246 247 248 249 250
351 344 339 336 335 335 337 340 343 343 339 339 344 348 347 345 344 344 343 342 342 344 346 345 345 345 342 334 325 315 305 296 289 283 278 274 271 269 267 265 264 261 257 252 247 242 238 235 232 230 227 226 226 226 226 227 228 228 228 227 227 228 230 231 231 231 231 231 232 234 236 237 238 238 239 240 242 243 243 243 244 244 246 247 248
0 357 354 350 346 343 339 338 339 339 337 337 339 340 340 340 340 340 342 343 342 344 349 351 350 350 350 347 340 330 320 311 302 294 286 279 274 270 267 264 260 256 251 247 243 239 235 233 231 229 227 225 225 226 227 228 228 228 228 227 227 228 230 231 231 232 233 233 234 235 236 237 239 240 241 242 242 243 243 244 244 245 246 247 249
0 0 0 359 358 356 352 346 340 335 330 328 329 331 333 334 334 336 340 343 343 343 346 351 354 357 358 358 353 345 335 325 316 305 294 285 279 273 267 260 254 250 247 243 239 236 233 231 230 230 228 226 226 227 228 229 229 229 228 227 227 228 230 231 232 233 234 235 236 237 238 239 240 241 242 244 245 246 246 247 247 248 249 250 251
356 358 359 0 1 1 1 359 354 348 340 332 326 323 323 326 329 331 334 338 342 344 344 344 349 355 0 3 2 360 355 346 334 321 308 296 287 280 271 261 253 247 244 241 238 235 233 232 232 232 231 230 229 229 230 231 231 230 229 228 228 229 230 231 233 234 235 236 237 238 239 240 241 241 242 244 245 247 248 250 251 251 252 253 254
351 353 355 357 358 359 359 360 -0 359 357 352 345 337 329 326 327 328 328 330 336 342 343 341 342 347 355 1 3 5 7 7 2 351 335 317 302 290 280 270 260 253 248 244 241 238 236 235 235 235 234 234 233 232 232 232 232 232 231 230 229 229 230 232 233 235 236 238 238 239 240 241 241 242 243 244 246 247 249 251 253 254 255 255 256
348 349 351 352 353 355 356 357 357 358 359 359 357 355 349 342 337 335 334 333 335 337 341 344 345 347 353 358 0 1 5 11 18 19 13 0 341 319 300 285 273 265 258 252 247 243 241 239 239 239 239 238 237 236 235 234 234 234 233 232 231 231 231 232 234 235 237 238 239 240 241 242 243 244 246 247 248 249 250 252 254 255 256 257 258
346 347 348 349 350 351 352 353 354 356 357 357 357 358 357 353 348 343 341 342 341 340 341 345 349 351 354 358 1 1 359 0 8 16 21 22 21 14 357 332 306 286 274 266 260 255 250 247 246 245 244 244 242 241 239 237 236 234 233 233 232 232 232 234 235 236 238 239 240 241 243 244 245 246 248 248 249 250 251 253 254 255 256 258 260
343 344 345 346 348 349 350 350 351 352 353 354 355 356 356 357 355 350 345 343 344 345 345 344 345 349 354 357 0 6 7 2 359 1 3 6 13 22 25 20 5 340 309 285 273 268 263 257 253 251 249 248 246 243 241 238 236 235 233 233 233 233 234 235 236 237 239 240 241 242 243 244 245 247 248 249 250 251 252 254 255 256 257 258 260
341 343 344 345 346 347 348 348 349 349 349 350 351 352 352 354 355 354 349 344 340 341 343 343 341 343 347 349 351 359 9 11 8 8 6 359 354 354 2 20 40 47 48 55 71 88 114 189 216 223 225 227 228 228 227 227 228 230 231 232 233 234 236 237 238 239 240 241 242 243 244 246 247 248 249 250 251 252 253 254 255 256 258 259 260
340 341 342 343 344 345 346 346 347 346 346 346 347 347 348 349 351 352 352 349 342 336 334 337 338 338 339 340 341 342 344 347 353 6 24 32 34 34 48 66 71 65 54 48 56 76 104 138 177 186 182 183 190 197 203 209 215 219 224 227 230 233 235 236 237 239 240 241 243 244 246 248 249 250 250 251 252 252 253 254 256 257 259 260 262
339 340 341 342 343 344 345 345 344 344 344 343 343 343 344 345 346 347 349 351 349 341 332 326 326 329 332 335 336 334 331 331 336 351 28 60 74 82 84 79 70 64 59 38 5 298 212 213 219 221 218 213 210 208 208 211 213 217 220 224 228 231 234 236 237 238 239 241 243 244 246 247 248 249 249 250 251 252 253 255 256 257 258 259 261
Height
5625 5625 5625 5625 5625 5626 5626 5627 5627 5627 5627 5626 5626 5626 5626 5625 5625 5624 5623 5622 5621 5621 5621 5621 5621 5622 5622 5622 5622 5623 5624 5624 5625 5626 5627 5628 5628 5629 5629 5629 5630 5631 5632 5633 5634 5634 5635 5637 5638 5640 5639 5638 5640 5641 5641 5642 5642 5642 5643 5643 5644 5644 5643 5643 5645 5646 5649 5652 5651 5650 5651 5651 5653 5654 5654 5655 5655 5655 5657 5658 5658 5659 5660 5662 5663
5615 5615 5615 5615 5615 5615 5615 5615 5615 5616 5616 5616 5616 5615 5615 5615 5614 5614 5613 5613 5612 5612 5611 5611 5611 5611 5611 5612 5612 5612 5613 5614 5614 5615 5616 5617 5618 5619 5619 5619 5620 5621 5622 5624 5625 5625 5625 5628 5630 5630 5628 5629 5631 5632 5633 5633 5633 5633 5634 5634 5634 5635 5634 5634 5635 5635 5638 5642 5643 5642 5642 5642 5644 5646 5646 5646 5646 5647 5649 5649 5649 5650 5651 5653 5654
5603 5603 5603 5604 5604 5604 5604 5604 5604 5604 5604 5604 5604 5604 5603 5603 5603 5602 5602 5601 5601 5601 5601 5601 5600 5600 5601 5601 5601 5601 5602 5602 5603 5604 5605 5606 5607 5608 5609 5610 5611 5611 5612 5614 5615 5615 5616 5618 5620 5620 5618 5619 5622 5623 5624 5624 5623 5623 5624 5624 5624 5625 5625 5624 5624 5625 5627 5631 5634 5634 5634 5633 5635 5637 5637 5638 5638 5638 5639 5640 5641 5641 5642 5644 5645
5592 5591 5591 5591 5591 5592 5592 5592 5592 5592 5592 5593 5593 5593 5592 5592 5591 5591 5590 5590 5590 5590 5589 5590 5589 5589 5590 5590 5590 5590 5591 5591 5592 5593 5594 5594 5596 5597 5598 5599 5600 5601 5602 5604 5604 5605 5606 5608 5610 5610 5608 5609 5612 5614 5614 5614 5614 5613 5613 5613 5614 5615 5614 5613 5614 5614 5615 5620 5624 5625 5625 5624 5626 5628 5629 5629 5630 5630 5630 5631 5632 5632 5633 5634 5636
5580 5579 5579 5579 5578 5578 5579 5579 5579 5579 5579 5580 5580 5581 5581 5581 5580 5579 5579 5578 5578 5578 5578 5578 5578 5579 5579 5579 5579 5579 5579 5580 5581 5581 5582 5582 5583 5585 5586 5588 5588 5589 5591 5592 5593 5594 5596 5598 5599 5598 5597 5600 5603 5604 5604 5603 5603 5602 5603 5603 5604 5604 5604 5603 5604 5603 5604 5609 5613 5615 5616 5616 5616 5619 5620 5621 5621 5622 5622 5622 5623 5623 5624 5625 5626
5567 5567 5566 5566 5566 5566 5565 5566 5566 5566 5566 5566 5566 5566 5567 5568 5568 5568 5567 5567 5566 5566 5565 5566 5566 5567 5567 5568 5568 5568 5569 5569 5570 5570 5571 5571 5572 5573 5574 5575 5577 5578 5579 5580 5582 5583 5585 5587 5588 5587 5586 5590 5594 5594 5593 5592 5591 5592 5593 5594 5594 5594 5593 5594 5595 5594 5594 5597 5602 5605 5607 5608 5607 5609 5611 5611 5612 5613 5613 5613 5614 5614 5614 5615 5617
5554 5554 5553 5553 5553 5553 5552 5552 5552 5553 5553 5553 5553 5553 5553 5553 5554 5554 5554 5554 5554 5553 5553 5553 5553 5553 5554 5554 5555 5555 5556 5557 5557 5558 5559 5559 5560 5561 5562 5563 5565 5566 5568 5569 5571 5572 5574 5575 5577 5576 5577 5580 5583 5583 5582 5581 5582 5583 5585 5585 5584 5583 5583 5585 5585 5585 5584 5586 5592 5596 5598 5598 5598 5599 5601 5601 5601 5603 5605 5604 5604 5604 5604 5606 5607
5541 5540 5540 5539 5539 5539 5539 5539 5539 5539 5539 5540 5540 5540 5539 5539 5539 5539 5540 5540 5541 5541 5540 5540 5540 5540 5540 5540 5541 5542 5543 5544 5544 5545 5546 5547 5548 5549 5550 5551 5552 5554 5556 5558 5559 5561 5563 5564 5565 5566 5567 5569 5571 5571 5571 5571 5572 5574 5576 5575 5573 5573 5573 5575 5575 5576 5576 5576 5580 5586 5588 5588 5589 5590 5591 5592 5592 5594 5595 5593 5592 5593 5593 5595 5597
5527 5526 5526 5526 5525 5525 5525 5525 5525 5525 5525 5525 5526 5526 5526 5526 5526 5526 5526 5526 5526 5526 5527 5527 5527 5527 5527 5527 5528 5528 5529 5530 5530 5531 5532 5534 5535 5537 5538 5538 5539 5542 5544 5546 5548 5550 5552 5552 5553 5554 5555 5557 5559 5560 5560 5560 5561 5564 5566 5564 5563 5563 5564 5565 5565 5567 5567 5567 5569 5575 5578 5579 5580 5581 5582 5583 5583 5583 5582 5581 5582 5583 5583 5585 5587
5514 5513 5513 5512 5512 5511 5511 5511 5511 5510 5510 5510 5510 5510 5511 5512 5512 5512 5512 5512 5512 5512 5513 5513 5513 5514 5514 5515 5515 5515 5516 5516 5516 5517 5518 5519 5521 5523 5525 5526 5527 5529 5531 5534 5536 5538 5540 5541 5541 5542 5543 5546 5548 5548 5548 5548 5550 5553 5554 5553 5552 5553 5554 5554 5555 5557 5558 5557 5559 5562 5566 5570 5572 5572 5572 5573 5572 5570 5571 5572 5573 5572 5573 5575 5577
5500 5499 5498 5498 5497 5497 5497 5496 5496 5496 5495 5495 5495 5495 5495 5495 5496 5496 5496 5496 5497 5498 5498 5499 5499 5500 5500 5501 5502 5502 5503 5503 5503 5503 5504 5505 5506 5508 5511 5514 5515 5517 5519 5521 5524 5526 5527 5528 5530 5530 5531 5534 5536 5536 5536 5538 5539 5541 5541 5541 5541 5542 5543 5544 5546 5547 5548 5549 5550 5551 5554 5560 5562 5562 5562 5562 5561 5559 5561 5562 5562 5562 5565 5566 5567
5486 5485 5483 5482 5481 5481 5482 5482 5482 5481 5480 5480 5480 5479 5478 5479 5479 5479 5479 5479 5480 5481 5482 5483 5484 5485 5486 5488 5489 5489 5490 5490 5489 5489 5490 5491 5491 5493 5496 5499 5501 5503 5506 5508 5511 5513 5514 5516 5518 5518 5519 5521 5522 5523 5525 5527 5528 5528 5529 5529 5530 5532 5533 5534 5536 5537 5537 5539 5541 5541 5544 5549 5550 5550 5551 5551 5550 5549 5549 5551 5552 5553 5555 5557 5557
5474 5472 5470 5468 5466 5466 5466 5466 5467 5466 5466 5465 5465 5465 5464 5463 5462 5462 5462 5462 5462 5463 5464 5465 5467 5468 5470 5472 5474 5475 5477 5477 5475 5475 5476 5476 5477 5478 5480 5484 5486 5488 5492 5494 5497 5500 5501 5503 5505 5507 5508 5508 5508 5510 5513 5515 5515 5515 5516 5516 5518 5521 5523 5524 5526 5527 5527 5528 5529 5531 5535 5536 5536 5539 5541 5539 5539 5539 5539 5541 5543 5543 5545 5547 5547
5461 5458 5457 5455 5453 5452 5451 5451 5451 5450 5450 5449 5449 5449 5449 5448 5447 5446 5446 5446 5446 5445 5446 5447 5448 5450 5451 5453 5456 5459 5461 5462 5460 5460 5460 5461 5461 5462 5465 5468 5470 5473 5477 5480 5482 5485 5487 5489 5492 5496 5497 5496 5495 5498 5501 5501 5501 5502 5502 5504 5507 5510 5512 5513 5515 5517 5517 5518 5519 5522 5524 5524 5524 5528 5529 5527 5528 5530 5530 5532 5533 5533 5534 5536 5537
5448 5445 5443 5442 5440 5438 5436 5435 5434 5434 5433 5432 5431 5431 5430 5429 5429 5428 5428 5429 5429 5429 5429 5429 5430 5431 5432 5433 5435 5440 5444 5444 5443 5443 5444 5445 5445 5445 5448 5452 5454 5457 5461 5464 5466 5469 5471 5473 5477 5482 5484 5483 5484 5486 5487 5486 5486 5487 5489 5491 5495 5498 5499 5503 5506 5506 5506 5507 5509 5512 5512 5511 5513 5516 5516 5516 5518 5520 5520 5521 5522 5523 5524 5526 5528
5434 5431 5429 5428 5426 5424 5422 5420 5419 5418 5417 5414 5413 5413 5411 5410 5409 5408 5408 5410 5411 5411 5412 5412 5412 5413 5414 5414 5415 5419 5424 5426 5425 5425 5426 5427 5427 5428 5430 5434 5437 5441 5446 5449 5450 5452 5455 5458 5460 5465 5467 5468 5470 5473 5473 5472 5472 5474 5476 5480 5482 5484 5487 5493 5495 5494 5494 5496 5498 5500 5500 5500 5502 5504 5505 5506 5507 5509 5509 5510 5512 5514 5515 5516 5518
5418 5416 5415 5414 5412 5410 5407 5405 5404 5403 5401 5398 5396 5395 5394 5392 5392 5389 5388 5390 5391 5392 5392 5394 5394 5395 5395 5397 5397 5399 5404 5408 5407 5406 5408 5408 5408 5409 5413 5416 5419 5424 5429 5433 5434 5435 5439 5442 5444 5447 5451 5453 5455 5456 5457 5457 5457 5460 5464 5468 5469 5471 5476 5481 5482 5481 5482 5484 5485 5487 5488 5488 5490 5491 5493 5495 5497 5498 5499 5501 5504 5506 5506 5506 5508
5404 5401 5401 5400 5398 5396 5393 5391 5389 5387 5386 5383 5380 5379 5377 5376 5375 5373 5371 5371 5372 5372 5372 5373 5375 5376 5376 5378 5379 5379 5384 5389 5390 5388 5390 5390 5389 5390 5393 5397 5401 5407 5412 5415 5417 5419 5423 5427 5428 5430 5435 5439 5438 5438 5441 5442 5443 5446 5451 5454 5455 5459 5466 5469 5467 5467 5470 5471 5472 5474 5475 5476 5478 5479 5481 5484 5486 5489 5490 5492 5495 5495 5495 5496 5497
5391 5388 5387 5386 5384 5382 5379 5377 5374 5372 5371 5368 5365 5363 5362 5360 5359 5356 5354 5354 5354 5354 5354 5354 5355 5357 5358 5359 5360 5360 5363 5369 5373 5372 5372 5373 5370 5369 5372 5376 5382 5389 5394 5397 5399 5402 5407 5412 5414 5415 5419 5423 5422 5422 5424 5427 5428 5432 5437 5438 5442 5450 5456 5454 5451 5454 5457 5457 5460 5461 5462 5464 5466 5467 5470 5473 5475 5479 5481 5482 5483 5484 5484 5485 5486
5379 5376 5374 5373 5371 5368 5365 5362 5360 5358 5355 5353 5351 5349 5347 5346 5343 5341 5338 5337 5336 5336 5337 5337 5337 5339 5341 5341 5341 5342 5344 5348 5353 5355 5355 5356 5354 5351 5351 5355 5361 5369 5374 5377 5380 5385 5391 5396 5399 5401 5402 5404 5406 5407 5409 5411 5413 5417 5420 5423 5432 5440 5440 5436 5437 5442 5444 5444 5447 5448 5449 5452 5454 5455 5458 5461 5464 5467 5469 5470 5472 5473 5474 5474 5475
5366 5363 5361 5360 5357 5354 5351 5348 5345 5343 5340 5337 5335 5334 5333 5330 5328 5325 5323 5321 5320 5319 5319 5319 5318 5320 5324 5324 5323 5325 5327 5329 5333 5336 5338 5339 5338 5335 5334 5336 5342 5347 5351 5356 5361 5367 5374 5379 5383 5386 5387 5387 5389 5391 5394 5396 5399 5401 5405 5411 5420 5423 5420 5420 5426 5430 5430 5432 5435 5436 5439 5441 5442 5444 5447 5449 5452 5456 5458 5459 5461 5463 5463 5464 5465
5352 5350 5348 5346 5343 5341 5338 5334 5330 5327 5325 5321 5318 5317 5317 5314 5311 5309 5306 5305 5304 5302 5302 5302 5301 5301 5304 5306 5307 5309 5311 5312 5313 5317 5320 5322 5322 5320 5317 5319 5324 5326 5329 5335 5341 5348 5355 5360 5365 5370 5372 5372 5373 5374 5378 5381 5383 5387 5393 5399 5402 5403 5404 5408 5412 5415 5418 5422 5424 5426 5429 5431 5432 5434 5436 5438 5442 5446 5447 5449 5451 5451 5452 5453 5454
5339 5336 5334 5332 5329 5326 5323 5319 5315 5312 5309 5305 5301 5299 5299 5296 5293 5291 5289 5287 5286 5286 5286 5286 5284 5282 5284 5287 5290 5292 5294 5295 5296 5299 5302 5304 5305 5304 5303 5304 5307 5308 5309 5315 5323 5329 5335 5341 5347 5352 5355 5357 5359 5360 5362 5366 5369 5374 5380 5383 5384 5387 5391 5394 5397 5402 5407 5410 5412 5416 5419 5420 5421 5424 5425 5428 5431 5435 5437 5438 5439 5439 5439 5441 5442
5325 5323 5320 5317 5314 5311 5307 5304 5300 5296 5293 5288 5284 5281 5281 5278 5274 5273 5272 5269 5267 5267 5269 5269 5267 5265 5266 5268 5271 5275 5277 5278 5278 5280 5283 5285 5287 5288 5289 5290 5292 5292 5292 5296 5304 5311 5316 5322 5328 5332 5337 5342 5345 5346 5347 5351 5357 5362 5366 5367 5370 5374 5377 5380 5385 5391 5395 5398 5402 5406 5408 5409 5410 5412 5414 5417 5420 5423 5425 5426 5426 5426 5427 5429 5430
5311 5309 5306 5302 5299 5295 5291 5288 5285 5280 5276 5272 5267 5265 5263 5260 5257 5256 5255 5252 5250 5250 5250 5251 5250 5249 5249 5250 5253 5257 5260 5260 5260 5262 5265 5267 5270 5272 5273 5274 5276 5276 5275 5277 5285 5292 5298 5304 5309 5313 5319 5325 5329 5331 5334 5338 5344 5348 5350 5352 5355 5360 5364 5368 5372 5376 5380 5386 5391 5394 5395 5397 5399 5400 5402 5405 5407 5409 5411 5412 5413 5414 5416 5417 5418
5298 5295 5291 5287 5283 5279 5274 5272 5269 5265 5261 5257 5252 5249 5247 5244 5241 5240 5239 5236 5234 5232 5232 5231 5231 5231 5231 5233 5235 5239 5241 5241 5242 5245 5249 5251 5253 5256 5257 5256 5257 5259 5259 5261 5267 5274 5280 5286 5290 5294 5300 5307 5312 5315 5320 5325 5329 5333 5336 5338 5341 5347 5352 5356 5359 5362 5367 5373 5377 5379 5382 5384 5385 5387 5390 5392 5393 5396 5398 5400 5401 5402 5404 5405 5406
5284 5281 5277 5272 5269 5264 5259 5256 5253 5250 5247 5243 5238 5235 5233 5229 5226 5225 5224 5220 5217 5216 5215 5214 5213 5213 5214 5216 5217 5220 5222 5224 5226 5229 5233 5235 5236 5238 5239 5238 5239 5242 5244 5247 5252 5257 5262 5268 5272 5276 5282 5289 5295 5300 5306 5311 5316 5320 5324 5326 5329 5334 5340 5344 5347 5349 5353 5357 5360 5363 5367 5370 5372 5374 5377 5378 5380 5383 5386 5388 5389 5391 5392 5393 5393
5272 5269 5264 5260 5255 5251 5247 5243 5240 5237 5235 5231 5227 5224 5221 5217 5213 5212 5211 5206 5202 5202 5201 5199 5199 5198 5197 5198 5199 5201 5205 5209 5212 5214 5216 5217 5218 5219 5220 5222 5224 5226 5229 5234 5238 5240 5243 5248 5254 5259 5265 5274 5280 5286 5292 5298 5303 5308 5312 5315 5317 5321 5325 5330 5334 5336 5340 5343 5345 5348 5353 5357 5359 5362 5363 5364 5367 5370 5373 5375 5377 5379 5381 5381 5381
5262 5258 5253 5249 5244 5239 5235 5232 5228 5225 5223 5220 5217 5213 5209 5205 5202 5201 5200 5195 5190 5189 5188 5187 5187 5185 5182 5182 5184 5185 5188 5195 5199 5199 5199 5199 5200 5200 5202 5207 5210 5211 5213 5218 5221 5222 5225 5230 5237 5244 5251 5259 5266 5272 5278 5284 5288 5294 5299 5303 5306 5309 5311 5316 5321 5325 5327 5329 5331 5335 5341 5344 5346 5348 5350 5351 5355 5358 5361 5363 5365 5367 5369 5369 5370
5253 5248 5243 5239 5235 5230 5226 5222 5218 5215 5212 5209 5206 5203 5199 5194 5190 5189 5188 5184 5180 5178 5176 5175 5175 5173 5169 5171 5172 5171 5174 5181 5184 5183 5183 5184 5184 5184 5186 5190 5195 5197 5200 5202 5203 5204 5209 5216 5223 5231 5238 5245 5252 5259 5266 5271 5274 5279 5285 5290 5293 5296 5299 5303 5309 5312 5314 5316 5318 5322 5327 5330 5332 5335 5337 5339 5343 5346 5348 5351 5353 5355 5356 5357 5358
5244 5240 5235 5231 5227 5222 5218 5214 5210 5206 5202 5199 5196 5194 5191 5187 5182 5178 5176 5174 5171 5168 5166 5164 5164 5162 5159 5160 5161 5161 5163 5167 5169 5169 5169 5169 5169 5170 5172 5175 5179 5183 5186 5187 5185 5188 5195 5202 5209 5217 5224 5231 5239 5247 5253 5257 5260 5265 5270 5275 5280 5284 5288 5292 5297 5301 5303 5305 5306 5309 5313 5316 5319 5322 5324 5327 5330 5333 5335 5338 5340 5342 5343 5345 5345
5237 5233 5229 5224 5220 5215 5211 5206 5202 5198 5195 5191 5187 5184 5181 5179 5175 5171 5167 5164 5161 5159 5156 5154 5153 5152 5150 5150 5151 5152 5153 5155 5156 5156 5156 5155 5155 5157 5159 5161 5164 5168 5171 5171 5169 5173 5182 5190 5196 5203 5211 5219 5227 5234 5238 5242 5246 5250 5256 5261 5267 5272 5277 5281 5286 5289 5291 5293 5295 5297 5301 5304 5306 5308 5311 5314 5318 5320 5323 5325 5327 5329 5331 5332 5333
5231 5227 5222 5218 5214 5209 5204 5199 5195 5191 5187 5183 5179 5176 5172 5169 5166 5163 5160 5156 5153 5150 5147 5144 5143 5142 5141 5140 5140 5142 5143 5144 5145 5146 5145 5144 5145 5146 5147 5149 5151 5153 5155 5155 5154 5161 5171 5179 5185 5191 5199 5207 5215 5220 5223 5226 5232 5237 5242 5248 5254 5260 5265 5270 5274 5277 5280 5282 5284 5285 5288 5291 5293 5296 5299 5303 5306 5309 5311 5313 5315 5317 5319 5320 5322
5225 5221 5217 5212 5208 5203 5198 5194 5189 5185 5181 5176 5172 5168 5164 5160 5157 5155 5152 5150 5147 5143 5139 5135 5133 5132 5132 5132 5131 5132 5133 5133 5134 5135 5136 5135 5135 5136 5136 5136 5137 5140 5141 5142 5144 5151 5161 5169 5174 5180 5187 5195 5202 5205 5207 5212 5218 5224 5230 5235 5241 5248 5253 5258 5262 5266 5269 5271 5272 5274 5276 5279 5282 5285 5289 5293 5296 5298 5300 5303 5305 5307 5308 5309 5310
5220 5216 5211 5207 5203 5198 5193 5189 5184 5180 5175 5170 5166 5162 5158 5154 5150 5147 5144 5142 5139 5137 5133 5128 5125 5123 5123 5123 5123 5122 5123 5123 5124 5126 5126 5126 5126 5126 5125 5125 5128 5130 5132 5133 5136 5143 5151 5158 5163 5168 5174 5181 5188 5190 5193 5199 5205 5212 5218 5224 5229 5236 5241 5245 5250 5254 5256 5259 5261 5263 5265 5268 5272 5276 5280 5283 5286 5288 5291 5293 5294 5295 5296 5297 5298
5215 5211 5207 5203 5199 5194 5189 5184 5180 5174 5170 5165 5160 5156 5152 5148 5144 5141 5137 5134 5131 5129 5126 5122 5119 5116 5115 5114 5114 5114 5114 5115 5116 5117 5117 5118 5117 5116 5116 5118 5120 5122 5123 5125 5128 5133 5139 5146 5151 5156 5161 5168 5173 5176 5180 5186 5193 5200 5206 5212 5218 5224 5229 5233 5237 5241 5243 5246 5249 5252 5255 5259 5263 5267 5270 5273 5276 5279 5280 5282 5283 5284 5286 5287 5288
5211 5207 5204 5199 5195 5190 5186 5180 5175 5170 5164 5160 5156 5151 5147 5143 5140 5136 5132 5129 5125 5122 5119 5116 5113 5111 5109 5108 5107 5107 5107 5108 5108 5109 5109 5110 5109 5108 5109 5111 5112 5113 5115 5117 5119 5123 5129 5135 5140 5144 5150 5155 5159 5163 5168 5175 5182 5188 5195 5202 5208 5213 5217 5221 5225 5228 5232 5236 5240 5243 5247 5251 5254 5257 5260 5263 5266 5268 5270 5271 5272 5274 5275 5277 5278
5208 5204 5200 5196 5192 5188 5183 5178 5172 5166 5161 5157 5153 5149 5146 5142 5138 5134 5130 5127 5123 5119 5115 5112 5109 5106 5104 5102 5102 5101 5101 5101 5101 5102 5102 5102 5102 5102 5102 5103 5104 5105 5107 5109 5111 5115 5120 5125 5130 5134 5139 5143 5147 5152 5158 5165 5172 5178 5185 5191 5197 5201 5204 5209 5214 5219 5223 5228 5231 5235 5238 5242 5245 5248 5250 5253 5256 5258 5259 5261 5262 5264 5266 5267 5269
5205 5201 5197 5193 5189 5185 5181 5176 5170 5164 5160 5156 5153 5149 5145 5141 5137 5134 5130 5126 5122 5118 5114 5110 5106 5103 5100 5098 5096 5096 5095 5094 5094 5094 5094 5094 5094 5095 5095 5096 5097 5099 5100 5102 5105 5108 5111 5116 5121 5125 5129 5133 5137 5143 5150 5156 5162 5168 5174 5179 5184 5189 5194 5199 5205 5209 5214 5219 5222 5226 5230 5233 5236 5239 5241 5244 5246 5248 5249 5251 5253 5255 5257 5258 5260
5202 5198 5194 5191 5186 5182 5178 5174 5168 5163 5160 5156 5152 5148 5144 5140 5137 5133 5129 5125 5121 5117 5113 5109 5105 5101 5098 5095 5092 5091 5089 5088 5088 5088 5088 5088 5088 5089 5090 5091 5091 5093 5094 5096 5099 5101 5103 5107 5112 5116 5120 5125 5130 5137 5142 5148 5152 5157 5162 5167 5173 5179 5185 5190 5195 5200 5205 5210 5213 5217 5221 5224 5227 5230 5232 5235 5237 5239 5240 5242 5244 5245 5248 5249 5250
5201 5196 5192 5188 5184 5180 5176 5172 5167 5163 5159 5155 5152 5148 5144 5140 5136 5132 5128 5124 5120 5116 5112 5109 5105 5100 5096 5093 5090 5088 5086 5084 5083 5083 5083 5084 5084 5085 5085 5086 5087 5088 5089 5091 5093 5095 5098 5102 5106 5110 5114 5119 5124 5130 5134 5138 5142 5146 5151 5157 5164 5170 5176 5181 5187 5192 5197 5201 5205 5209 5212 5215 5218 5221 5223 5226 5228 5230 5232 5234 5235 5237 5238 5240 5241
5201 5196 5192 5187 5183 5179 5174 5170 5166 5162 5158 5155 5151 5147 5143 5140 5136 5132 5128 5124 5120 5116 5112 5108 5104 5100 5096 5092 5089 5086 5084 5082 5081 5081 5081 5081 5081 5082 5082 5082 5083 5084 5085 5087 5089 5091 5094 5097 5101 5104 5109 5114 5118 5123 5126 5130 5133 5137 5143 5149 5156 5163 5168 5174 5179 5184 5189 5193 5197 5200 5204 5206 5209 5212 5215 5217 5220 5222 5224 5226 5227 5228 5229 5231 5231
5202 5197 5193 5188 5183 5178 5174 5169 5165 5161 5158 5154 5150 5147 5143 5139 5135 5131 5127 5123 5119 5115 5112 5108 5104 5101 5097 5094 5090 5087 5084 5082 5081 5080 5079 5079 5079 5079 5079 5080 5081 5081 5083 5084 5086 5089 5091 5094 5097 5101 5106 5110 5114 5118 5121 5124 5127 5131 5137 5144 5150 5156 5161 5166 5172 5177 5182 5186 5189 5192 5195 5198 5201 5204 5206 5209 5211 5213 5215 5217 5219 5220 5221 5222 5223
5201 5197 5192 5187 5183 5178 5174 5169 5165 5161 5156 5153 5149 5145 5142 5138 5134 5130 5126 5122 5119 5115 5111 5108 5104 5101 5098 5095 5092 5088 5085 5082 5081 5080 5079 5079 5079 5079 5078 5079 5079 5080 5081 5083 5085 5087 5090 5093 5096 5100 5103 5107 5111 5114 5117 5119 5122 5127 5133 5139 5144 5150 5155 5160 5165 5170 5175 5178 5181 5185 5187 5190 5193 5195 5197 5199 5202 5204 5207 5208 5210 5212 5212 5213 5214
5200 5196 5191 5187 5183 5178 5174 5169 5165 5160 5156 5151 5147 5143 5139 5136 5132 5129 5125 5121 5118 5114 5111 5108 5105 5102 5099 5096 5094 5091 5088 5085 5082 5080 5079 5079 5079 5079 5079 5079 5079 5080 5081 5083 5085 5087 5089 5092 5095 5098 5101 5104 5107 5110 5112 5116 5119 5124 5130 5135 5139 5144 5149 5154 5159 5164 5167 5171 5174 5177 5179 5182 5185 5187 5189 5191 5192 5195 5197 5199 5201 5203 5204 5204 5205
5198 5194 5190 5186 5181 5177 5173 5169 5164 5160 5155 5151 5146 5142 5138 5134 5130 5127 5124 5120 5117 5114 5111 5108 5105 5102 5100 5097 5095 5093 5090 5088 5085 5083 5081 5080 5080 5079 5079 5080 5080 5081 5082 5083 5085 5087 5089 5091 5093 5096 5098 5101 5104 5106 5110 5113 5117 5122 5126 5131 5135 5140 5144 5148 5153 5157 5160 5164 5167 5170 5172 5175 5177 5179 5181 5183 5185 5187 5189 5190 5192 5194 5194 5195 5196
5196 5192 5188 5184 5180 5176 5171 5168 5163 5159 5155 5150 5146 5142 5137 5133 5130 5126 5123 5120 5116 5113 5111 5108 5105 5103 5100 5098 5096 5094 5092 5090 5088 5086 5084 5083 5082 5081 5080 5080 5080 5081 5082 5083 5084 5086 5088 5090 5092 5094 5096 5099 5101 5104 5108 5111 5115 5118 5123 5127 5130 5135 5139 5142 5146 5150 5153 5157 5160 5163 5166 5168 5170 5172 5174 5176 5177 5179 5181 5182 5184 5185 5186 5187 5187
5194 5191 5187 5183 5178 5174 5170 5166 5162 5158 5154 5150 5146 5142 5138 5134 5130 5126 5123 5119 5117 5114 5111 5109 5106 5103 5101 5099 5096 5095 5093 5091 5089 5088 5086 5085 5084 5083 5082 5082 5082 5082 5083 5083 5084 5086 5087 5089 5091 5093 5095 5097 5100 5102 5105 5109 5112 5115 5119 5122 5126 5130 5133 5137 5140 5144 5147 5150 5153 5156 5158 5161 5163 5164 5166 5168 5170 5172 5173 5175 5176 5177 5178 5178 5179
5193 5189 5185 5181 5177 5173 5169 5165 5161 5157 5153 5149 5145 5141 5138 5134 5130 5127 5123 5120 5117 5114 5112 5109 5107 5104 5102 5100 5097 5095 5094 5092 5090 5089 5088 5087 5086 5085 5085 5085 5085 5085 5085 5085 5086 5087 5088 5089 5091 5093 5094 5096 5098 5101 5103 5106 5109 5112 5115 5119 5122 5125 5129 5132 5135 5138 5141 5144 5147 5149 5152 5154 5156 5158 5160 5162 5163 5165 5166 5167 5169 5170 5170 5171 5171
5191 5187 5183 5179 5175 5171 5167 5163 5159 5155 5152 5148 5144 5141 5137 5134 5130 5127 5124 5120 5117 5115 5112 5110 5107 5105 5103 5101 5098 5096 5095 5093 5092 5090 5089 5088 5088 5087 5087 5087 5087 5087 5087 5087 5088 5089 5090 5091 5092 5094 5095 5097 5098 5100 5102 5105 5107 5110 5113 5116 5119 5122 5125 5128 5131 5133 5136 5139 5141 5144 5146 5148 5150 5152 5153 5155 5156 5158 5159 5160 5161 5162 5163 5163 5163
5188 5185 5181 5177 5173 5169 5165 5161 5157 5154 5150 5147 5143 5140 5137 5133 5130 5127 5124 5120 5117 5115 5112 5110 5108 5106 5103 5101 5099 5097 5096 5094 5093 5092 5091 5090 5089 5089 5088 5088 5088 5088 5089 5089 5089 5090 5090 5091 5093 5094 5095 5097 5098 5100 5102 5104 5107 5109 5112 5114 5117 5119 5122 5124 5127 5129 5131 5134 5136 5138 5140 5142 5144 5145 5147 5148 5150 5151 5152 5153 5154 5155 5155 5156 5156